Regional Weather Roundup
Issued by NWS State College, PA

Home | Current Version | Previous Version | Text Only | Print | Product List | Glossary On
Versions: 1 2 3 4 5 6 7 8 9 10 11 12 13 14 15 16 17 18 19 20 21 22 23 24 25 26 27 28 29 30 31 32 33 34 35 36 37 38 39 40 41 42 43 44 45 46 47 48 49 50
000
ASUS41 KCTP 171210
RWRCTP

REGIONAL WEATHER ROUNDUP
NATIONAL WEATHER SERVICE STATE COLLEGE PA
800 AM EDT WED SEP 17 2014

Note: "fair" indicates few or no clouds below 12,000 feet with no
significant weather and/or obstructions to visibility.

* = STATION THAT DOES NOT REPORT PRECIPITATION /E.G. RAIN...SNOW...ETC/
    THUNDER OR FOG.

PAZ002>004-007>009-013>016-020>023-029>032-171300-
WESTERN PENNSYLVANIA

CITY           SKY/WX    TMP DP  RH WIND       PRES   REMARKS
ERIE           PTCLDY    51  45  79 S8        30.06S
MEADVILLE      CLEAR     48  46  93 S5        30.08R
FRANKLIN*      SUNNY     43  39  87 CALM      30.09S
NEW CASTLE     FOG       46  46 100 CALM      30.10R VSB<1/4
BEAVER COUNTY  PTCLDY    48  46  93 CALM      30.08R
BUTLER*        CLOUDY    48  45  87 CALM      30.10S
PITTSBURGH INT PTCLDY    50  47  89 CALM      30.07S
PITTSBURGH     SUNNY     49  47  93 CALM      30.07R
INDIANA*       SUNNY     46  46 100 CALM      30.12S
LATROBE        MOSUNNY   46  46 100 CALM      30.09S
WASHINGTON CO* MOCLDY    45  43  93 CALM      30.08R VSB 3/4
$$

PAZ004>006-010>012-017>019-024>028-033>037-041-042-045-046-049>053-171300-
CENTRAL PENNSYLVANIA

CITY           SKY/WX    TMP DP  RH WIND       PRES   REMARKS
BRADFORD       SUNNY     38  35  89 CALM      30.08S
DUBOIS         PTSUNNY   47  46  97 CALM      30.08R
CLEARFIELD     FOG       44  44 100 N3        30.09S VSB 1/4
JOHNSTOWN      MOSUNNY   47  45  93 SW3       30.08S FOG
ALTOONA        MOSUNNY   48  47  96 CALM      30.09R FOG
STATE COLLEGE  FOG       45  45 100 CALM      30.09S VSB 1/8
WILLIAMSPORT   CLOUDY    48  45  89 NW6       30.09R FOG
SELINSGROVE    FOG       50  49  96 CALM      30.09R VSB<1/4
FT INDIANTOWN  SUNNY     51  51 100 S1        30.08R
CAPITAL CITY   MOSUNNY   54  49  83 CALM      30.08R
HARRISBURG     MOSUNNY   55  51  86 N5        30.07R
YORK           SUNNY     48  47  96 CALM      30.07R
$$

PAZ038>040-043-044-047-048-054-055-060>062-067>071-171300-
EASTERN PENNSYLVANIA

CITY           SKY/WX    TMP DP  RH WIND       PRES   REMARKS
SCRANTON       CLOUDY    44  42  93 E6        30.08S
MOUNT POCONO   SUNNY     43  41  93 CALM      30.08R
ALLENTOWN      SUNNY     50  48  93 CALM      30.08R
QUAKERTOWN*    SUNNY     48  46  93 CALM      30.08R
READING        SUNNY     53  50  89 CALM      30.07S
LANCASTER      MOSUNNY   52  50  93 NW3       30.07R
COATESVILLE    SUNNY     54  50  87 CALM      30.07S
POTTSTOWN      SUNNY     53  50  89 N3        30.08R
BLUE BELL      SUNNY     52  52 100 CALM      30.06S
DOYLESTOWN     SUNNY     50  50 100 CALM      30.06R
WILLOW GROVE   NOT AVBL
NORTH PHILA    SUNNY     59  50  72 CALM      30.07S
PHILADELPHIA   MOSUNNY   59  50  72 N7        30.06R
$$


USA.gov is the U.S. government's official web portal to all federal, state and local government web resources and services.